User: anonymous   Login
Location: Unspecified
(0.0000°N, 0.0000°E)
Time: 14:56:51
(UTC+02:00)
Language:

ARIANE 5 R/B - Orbit

View from above orbital plane
View from above orbital plane
View from above satellite
View from above satellite

Ground track
Ground track

The orbit data is extracted from the following two-line orbital elements,

1 28787U 05028B   15086.82533840 -.00000087  00000-0  47187-4 0  9997
2 28787 007.4095 350.6905 7161016 305.9231 252.0189 02.26558537 79693
Epoch (UTC): 27 March 2015 19:48:29
Eccentricity: 0.7161016
inclination: 7.4095°
perigee height: 574 km
apogee height: 35645 km
right ascension of ascending node: 350.6905°
argument of perigee: 305.9231°
revolutions per day: 2.26558537
mean anomaly at epoch: 252.0189°
orbit number at epoch: 7969

The dashed part of the orbit path shows where the satellite is in the earth's shadow,  

DLR